Weather reports worldwide

Advertisment
Gourette, France (7775): temperature & dewpoint: 10.08.2018 13:00:00 - 16.08.2018 13:00:00 (CEST)Gourette, France (7775): wind speed & gusts: 10.08.2018 13:00:00 - 16.08.2018 13:00:00 (CEST)Gourette, France (7775): wind direction: 10.08.2018 13:00:00 - 16.08.2018 13:00:00 (CEST)Gourette, France (7775): reduced air pressure: 10.08.2018 13:00:00 - 16.08.2018 13:00:00 (CEST)Gourette, France (7775): visibility: 10.08.2018 13:00:00 - 16.08.2018 13:00:00 (CEST)Gourette, France (7775): precipitation: 10.08.2018 13:00:00 - 16.08.2018 13:00:00 (CEST)
Date & Time tt [°C] td [°C] ff [km/h] ff [kn] fx [km/h] fx [kn] dd ppp [hPa] vv [km] rr [mm]
16.08.2018 13:00:00 32,3 17,4 31 17 48 26 NNE 1014,2 - 0,0
16.08.2018 12:00:00 32,0 18,2 26 14 40 22 NNE 1014,7 - 0,0
16.08.2018 11:00:00 30,8 18,2 27 14 39 21 NNE 1015,0 40 0,0
16.08.2018 10:00:00 29,3 16,8 24 13 34 19 N 1014,7 - 0,0
16.08.2018 09:00:00 27,7 16,6 20 11 32 17 N 1014,8 - 0,0
16.08.2018 08:00:00 25,0 16,4 14 8 23 13 NW 1014,8 - 0,0
16.08.2018 07:00:00 23,6 16,6 17 9 26 14 NW 1014,6 - 0,0
16.08.2018 06:00:00 23,7 16,2 19 10 29 16 NNW 1014,4 - 0,0
16.08.2018 05:00:00 23,8 16,1 15 8 23 12 NNW 1014,5 - 0,0
16.08.2018 04:00:00 24,0 15,8 18 10 28 15 NNW 1014,6 - 0,0
16.08.2018 03:00:00 24,7 16,1 21 11 27 14 NNW 1014,7 - 0,0
16.08.2018 02:00:00 24,6 16,6 19 10 29 16 NNW 1014,9 - 0,0
16.08.2018 01:00:00 24,9 17,1 18 10 26 14 NNW 1015,0 - 0,0
16.08.2018 00:00:00 25,2 16,3 21 11 28 15 NNW 1014,9 - 0,0
15.08.2018 23:00:00 25,0 15,9 19 10 31 17 NNW 1014,7 - 0,0
15.08.2018 22:00:00 25,5 15,5 18 10 25 14 NW 1014,7 - 0,0
15.08.2018 21:00:00 25,3 15,9 18 10 29 16 NW 1014,2 - 0,0
15.08.2018 20:00:00 26,1 16,6 18 10 37 20 N 1013,9 - 0,0
15.08.2018 19:00:00 28,2 17,4 23 13 50 27 N 1013,4 - 0,0
15.08.2018 18:00:00 28,7 17,9 33 18 49 27 N 1013,3 - 0,0
15.08.2018 17:00:00 29,9 18,0 37 20 49 27 N 1013,3 30 0,0
15.08.2018 16:00:00 30,5 18,2 34 18 57 31 N 1013,4 - 0,0
15.08.2018 15:00:00 30,4 18,2 37 20 58 32 N 1013,5 - 0,0
15.08.2018 14:00:00 30,9 19,3 34 18 51 28 N 1013,5 - 0,0
15.08.2018 13:00:00 29,7 19,4 28 15 46 25 N 1013,7 - 0,0
15.08.2018 12:00:00 29,7 18,5 25 13 42 23 N 1013,6 - 0,0
15.08.2018 11:00:00 25,7 19,8 21 11 35 19 N 1013,7 - 0,0
15.08.2018 10:00:00 25,0 18,4 22 12 36 19 N 1013,4 - 0,0
15.08.2018 09:00:00 24,3 20,0 9 5 24 13 N 1013,1 - 0,0
15.08.2018 08:00:00 21,4 19,5 19 10 30 16 NNW 1012,8 18 0,4
15.08.2018 07:00:00 21,7 19,4 23 12 37 20 NE 1012,8 - 0,2
15.08.2018 06:00:00 22,0 18,0 18 10 27 15 N 1012,8 - 0,0
15.08.2018 05:00:00 21,4 18,0 8 4 28 15 WSW 1012,2 15 0,2
15.08.2018 04:00:00 22,5 17,6 11 6 39 21 NNE 1012,6 - 0,0
15.08.2018 03:00:00 21,7 18,7 11 6 15 8 W 1012,4 - 0,0
15.08.2018 02:00:00 23,3 19,0 7 4 18 10 WNW 1012,4 - 0,0
15.08.2018 01:00:00 23,4 19,5 11 6 20 11 NW 1012,9 - 0,0
15.08.2018 00:00:00 22,8 19,6 13 7 25 14 NW 1012,4 - 0,0
14.08.2018 23:00:00 23,2 19,1 16 9 45 24 N 1012,0 - 0,0
14.08.2018 22:00:00 23,7 17,9 18 10 24 13 NW 1011,3 - 0,0
14.08.2018 21:00:00 24,0 18,6 20 11 24 13 NNW 1011,2 - 0,0
14.08.2018 20:00:00 26,0 17,9 4 2 18 10 NNW 1011,0 15 0,0
14.08.2018 19:00:00 27,3 18,6 11 6 20 11 ESE 1010,5 - 0,0
14.08.2018 18:00:00 28,9 17,1 11 6 20 11 SE 1010,5 - 0,0
14.08.2018 17:00:00 29,9 17,4 9 5 15 8 SSW 1010,6 - 0,0
14.08.2018 16:00:00 25,8 19,0 7 4 30 16 NW 1011,1 - 0,0
14.08.2018 15:00:00 24,8 21,7 6 3 31 17 NW 1011,2 - 0,0
14.08.2018 14:00:00 27,1 25,1 16 9 45 24 NNE 1011,9 - 6,5
14.08.2018 13:00:00 27,4 20,7 25 13 34 19 ENE 1011,4 - 0,0
14.08.2018 12:00:00 31,0 21,5 22 12 39 21 NE 1011,7 - 0,0
14.08.2018 11:00:00 29,9 21,3 23 13 34 18 NNE 1011,9 25 0,0
14.08.2018 10:00:00 26,9 20,5 12 6 19 10 N 1012,0 - 0,0
14.08.2018 09:00:00 23,3 17,3 15 8 29 16 NW 1011,2 - 0,4
14.08.2018 08:00:00 22,5 21,0 15 8 19 10 SW 1011,4 - 0,4
14.08.2018 07:00:00 23,9 20,4 16 9 22 12 NW 1011,8 - 0,2
14.08.2018 06:00:00 24,2 19,7 17 9 23 12 NW 1011,2 - 0,0
14.08.2018 05:00:00 24,7 19,8 11 6 18 10 NW 1011,0 15 0,0
14.08.2018 04:00:00 24,6 19,2 14 8 18 10 NW 1011,5 - 0,0
14.08.2018 03:00:00 24,8 19,4 12 7 17 9 NW 1011,4 - 0,0
14.08.2018 02:00:00 25,0 19,1 7 4 9 5 NNW 1011,8 - 0,0
14.08.2018 01:00:00 25,0 20,0 5 3 10 6 NW 1011,9 - 0,0
14.08.2018 00:00:00 24,9 19,7 8 4 16 9 NNW 1012,3 - 0,0
13.08.2018 23:00:00 25,0 19,8 6 3 9 5 N 1012,3 - 0,0
13.08.2018 22:00:00 24,8 20,3 9 5 11 6 SW 1012,4 - 0,0
13.08.2018 21:00:00 24,6 19,9 9 5 11 6 WSW 1012,3 - 0,0
13.08.2018 20:00:00 26,5 19,9 0 0 10 5 N 1012,1 20 0,0
13.08.2018 19:00:00 27,8 19,1 6 3 14 8 E 1011,9 - 0,0
13.08.2018 18:00:00 29,1 18,2 8 4 12 7 E 1012,3 - 0,0
13.08.2018 17:00:00 28,1 18,5 5 3 9 5 E 1012,7 20 0,0
13.08.2018 16:00:00 27,3 21,6 4 2 18 10 SW 1013,2 - 0,0
13.08.2018 15:00:00 24,5 20,6 10 6 41 22 NNW 1013,9 - 0,6
13.08.2018 14:00:00 28,1 17,9 27 15 57 31 N 1014,3 10 0,0
13.08.2018 13:00:00 30,3 21,4 20 11 34 18 SSE 1013,5 - 0,0
13.08.2018 12:00:00 29,6 21,8 21 11 33 18 SE 1013,9 - 0,0
13.08.2018 11:00:00 30,1 21,7 11 6 22 12 E 1014,1 30 0,0
13.08.2018 10:00:00 29,9 21,3 6 4 14 7 E 1014,0 - 0,0
13.08.2018 09:00:00 28,5 21,8 6 4 14 7 NE 1014,1 - 0,0
13.08.2018 08:00:00 25,9 21,1 7 4 10 6 NW 1014,0 - 0,0
13.08.2018 07:00:00 25,1 20,6 9 5 15 8 NW 1013,9 - 0,0
13.08.2018 06:00:00 24,6 19,4 11 6 16 8 NNW 1014,0 - 0,0
13.08.2018 05:00:00 25,3 19,9 8 4 9 5 NW 1014,2 - 0,0
13.08.2018 04:00:00 25,5 19,6 4 2 11 6 NW 1014,2 - 0,0
13.08.2018 03:00:00 25,0 19,4 11 6 14 8 NW 1014,3 - 0,0
13.08.2018 02:00:00 24,9 19,7 11 6 16 9 NW 1014,8 18 0,0
13.08.2018 01:00:00 24,9 19,9 10 5 14 7 NW 1015,3 - 0,0
13.08.2018 00:00:00 24,4 20,5 10 5 12 7 SW 1015,4 - 0,0
12.08.2018 23:00:00 24,5 20,8 10 5 18 10 SW 1015,5 - 0,0
12.08.2018 22:00:00 24,7 20,4 12 6 14 8 SW 1015,4 - 0,0
12.08.2018 21:00:00 25,7 20,5 8 4 11 6 SSW 1015,3 - 0,0
12.08.2018 20:00:00 27,0 20,3 7 4 14 7 S 1015,0 - 0,0
12.08.2018 19:00:00 28,4 20,4 6 4 16 9 S 1015,2 - 0,0
12.08.2018 18:00:00 28,9 20,6 8 4 16 9 SE 1015,8 - 0,0
12.08.2018 17:00:00 28,7 21,2 11 6 23 13 E 1015,9 20 0,0
12.08.2018 16:00:00 30,0 21,1 12 7 21 11 E 1016,2 - 0,0
12.08.2018 15:00:00 30,1 20,9 14 8 23 13 E 1016,8 - 0,0
12.08.2018 14:00:00 30,4 21,2 13 7 23 13 E 1016,9 - 0,0
12.08.2018 13:00:00 30,6 21,1 16 9 26 14 E 1017,2 - 0,0
12.08.2018 12:00:00 30,7 21,8 12 6 26 14 ESE 1017,3 - 0,0
12.08.2018 11:00:00 30,7 21,5 11 6 23 13 ESE 1017,3 20 0,0
12.08.2018 10:00:00 30,0 21,1 10 6 21 11 ESE 1017,4 - 0,0
12.08.2018 09:00:00 28,2 21,2 10 5 17 9 S 1017,3 - 0,0
12.08.2018 08:00:00 26,1 21,5 5 3 9 5 SSW 1017,2 - 0,0
12.08.2018 07:00:00 24,9 21,0 7 4 9 5 SW 1016,9 - 0,0
12.08.2018 06:00:00 25,5 20,1 7 4 9 5 WSW 1016,5 - 0,0
12.08.2018 05:00:00 25,2 17,9 8 4 10 5 WSW 1016,5 15 0,0
12.08.2018 04:00:00 25,6 19,3 3 2 7 4 WSW 1016,6 - 0,0
12.08.2018 03:00:00 25,0 17,0 7 4 9 5 SSW 1016,8 - 0,0
12.08.2018 02:00:00 25,3 17,0 6 4 10 6 SW 1017,1 - 0,0
12.08.2018 01:00:00 25,9 13,7 8 4 12 7 W 1017,6 - 0,0
12.08.2018 00:00:00 26,1 11,8 12 7 16 8 NNW 1017,7 - 0,0
11.08.2018 23:00:00 26,3 14,1 5 3 10 5 NNE 1017,6 15 0,0
11.08.2018 22:00:00 27,3 14,3 5 3 13 7 NNW 1017,3 - 0,0
11.08.2018 21:00:00 26,5 19,6 11 6 13 7 NW 1016,8 - 0,0
11.08.2018 20:00:00 27,8 22,7 8 4 12 7 N 1016,6 20 0,0
11.08.2018 19:00:00 29,4 22,9 8 4 18 10 NE 1016,8 - 0,0
11.08.2018 18:00:00 30,2 23,6 11 6 19 11 ENE 1017,0 - 0,0
11.08.2018 17:00:00 30,4 23,1 13 7 20 11 E 1017,4 15 0,0
11.08.2018 16:00:00 30,0 23,2 9 5 23 12 ESE 1018,0 - 0,0
11.08.2018 15:00:00 32,0 23,5 13 7 27 15 ESE 1018,3 - 0,0
11.08.2018 14:00:00 31,2 23,6 14 8 27 15 ESE 1018,4 15 0,0
11.08.2018 13:00:00 30,8 24,0 14 7 31 17 SE 1018,7 - 0,0
11.08.2018 12:00:00 30,6 23,3 17 9 30 16 SE 1018,7 - 0,0
11.08.2018 11:00:00 29,7 22,9 16 9 27 15 SE 1019,0 15 0,0
11.08.2018 10:00:00 28,5 22,3 15 8 22 12 S 1019,0 - 0,2
11.08.2018 09:00:00 27,9 21,7 7 4 14 7 S 1019,0 - 0,0
11.08.2018 08:00:00 24,9 18,6 6 4 12 6 SSW 1019,0 - 0,0
11.08.2018 07:00:00 24,1 17,8 6 3 10 6 SW 1019,0 - 0,0
11.08.2018 06:00:00 25,0 17,0 8 4 16 8 NNW 1018,7 - 0,0
11.08.2018 05:00:00 24,5 17,7 14 8 17 9 NNW 1018,8 15 0,0
11.08.2018 04:00:00 25,4 17,3 10 5 14 7 NNW 1019,0 - 0,0
11.08.2018 03:00:00 26,1 17,2 8 4 13 7 NNW 1019,3 - 0,0
11.08.2018 02:00:00 25,9 17,0 10 5 15 8 NNW 1019,6 - 0,0
11.08.2018 01:00:00 26,4 16,0 5 3 8 4 WNW 1020,0 - 0,0
11.08.2018 00:00:00 26,2 16,7 0 0 8 4 N 1020,1 - 0,0
10.08.2018 23:00:00 25,8 18,0 3 2 9 5 WNW 1019,9 - 0,0
10.08.2018 22:00:00 23,9 19,8 3 1 9 5 WSW 1019,9 - 0,0
10.08.2018 21:00:00 24,5 21,4 5 3 12 6 NW 1019,3 - 0,0
10.08.2018 20:00:00 26,5 22,1 3 2 18 10 WSW 1019,0 18 0,0
10.08.2018 19:00:00 27,7 21,0 6 4 39 21 WSW 1018,9 - 0,0
10.08.2018 18:00:00 23,5 21,6 16 9 43 23 SW 1019,8 15 0,2
10.08.2018 17:00:00 24,3 19,6 23 13 32 18 SSW 1019,7 20 1,4
10.08.2018 16:00:00 29,9 22,1 14 7 25 14 N 1020,1 - 0,0
10.08.2018 15:00:00 31,3 22,3 12 7 23 13 E 1020,3 - 0,0
10.08.2018 14:00:00 30,9 22,0 13 7 23 12 E 1020,1 - 0,0
10.08.2018 13:00:00 30,9 22,5 13 7 24 13 E 1020,3 - 0,0

tt = temperature
td = dewpoint
ff = wind speed
fx = gusts
dd = wind direction
ppp = reduced air pressure
vv = visibility
rr = precipitation

Next stations